User: anonymous   Login
Location: Vancouver
(49.2500°N, 123.1330°W)
Time: 09:02:37
(UTC-07:00)
Language:

JAS-1B - Orbit

View from above orbital plane
View from above orbital plane
View from above satellite
View from above satellite

Ground track
Ground track

The orbit data is extracted from the following two-line orbital elements,

1 20480U 90013C   17081.87141954 -.00000027 +00000-0 +16684-4 0  9992
2 20480 099.0380 231.2574 0539660 226.4448 129.0625 12.83415325270646
Epoch (UTC): 22 March 2017 20:54:50
Eccentricity: 0.0539660
inclination: 99.0380°
perigee height: 912 km
apogee height: 1743 km
right ascension of ascending node: 231.2574°
argument of perigee: 226.4448°
revolutions per day: 12.83415325
mean anomaly at epoch: 129.0625°
orbit number at epoch: 27064

The dashed part of the orbit path shows where the satellite is in the earth's shadow,  

DLR